LRFT Weather Reports


Display with metric or nautical units.
time (UTC)temp
F
wind
direction
speed
MPH
gust
MPH
rain 1hr
in
rain 24hr
in
rain mn
in
humidity
%
barometer
mb
20260505010400 43 3.0 0.0 0.00 0.00 0.00 81 1015.0
20260505004856 43 3.0 0.0 0.00 0.00 0.00 81 1015.0
20260505003359 45 3.0 0.0 0.00 0.00 0.00 76 1015.0
20260505001857 45 3.0 0.0 0.00 0.00 0.00 76 1015.0
20260505000400 45 3.0 0.0 0.00 0.00 0.00 76 1015.0
20260504234857 46 3.0 0.0 0.00 0.00 0.00 76 1016.0
20260504233356 46 3.0 0.0 0.00 0.00 0.00 76 1016.0
20260504231857 46 3.0 0.0 0.00 0.00 0.00 76 1016.0
20260504230357 46 3.0 0.0 0.00 0.00 0.00 76 1016.0
20260504224853 0 0.0 0.0 0.00 0.00 0.00
20260504223356 0 0.0 0.0 0.00 0.00 0.00
20260504221919 0 0.0 0.0 0.00 0.00 0.00
20260504220356 0 0.0 0.0 0.00 0.00 0.00
20260504214856 46 150 7.0 0.0 0.00 0.00 0.00 76 1016.0
20260504213415 46 150 7.0 0.0 0.00 0.00 0.00 76 1016.0
20260504211859 46 150 7.0 0.0 0.00 0.00 0.00 76 1016.0
20260504210359 46 150 7.0 0.0 0.00 0.00 0.00 76 1016.0
20260504204856 48 150 7.0 0.0 0.00 0.00 0.00 71 1016.0
20260504203401 48 150 7.0 0.0 0.00 0.00 0.00 71 1016.0
20260504201856 48 150 7.0 0.0 0.00 0.00 0.00 71 1016.0
20260504200400 48 150 7.0 0.0 0.00 0.00 0.00 71 1016.0
20260504194900 48 150 7.0 0.0 0.00 0.00 0.00 76 1016.0
20260504193400 48 150 7.0 0.0 0.00 0.00 0.00 76 1016.0
20260504191859 48 150 7.0 0.0 0.00 0.00 0.00 76 1016.0
20260504190400 48 150 7.0 0.0 0.00 0.00 0.00 76 1016.0
20260504184857 0 0.0 0.0 0.00 0.00 0.00
20260504183410 0 0.0 0.0 0.00 0.00 0.00
20260504181900 0 0.0 0.0 0.00 0.00 0.00
20260504180400 0 0.0 0.0 0.00 0.00 0.00
20260504174900 59 150 2.0 0.0 0.00 0.00 0.00 55 1015.0
20260504173400 59 150 2.0 0.0 0.00 0.00 0.00 55 1015.0
20260504171859 59 150 2.0 0.0 0.00 0.00 0.00 55 1015.0
20260504170359 59 150 2.0 0.0 0.00 0.00 0.00 55 1015.0
20260504160400 57 120 7.0 0.0 0.00 0.00 0.00 67 1015.0
20260504150359 64 30 7.0 0.0 0.00 0.00 0.00 46 1015.0
20260504140400 68 30 11.0 0.0 0.00 0.00 0.00 35 1015.0
20260504130359 66 30 11.0 0.0 0.00 0.00 0.00 40 1015.0
20260504110400 66 20 14.0 0.0 0.00 0.00 0.00 32 1016.0
20260504100359 63 350 11.0 0.0 0.00 0.00 0.00 45 1016.0
20260504081859 59 350 9.0 0.0 0.00 0.00 0.00 51 1016.0
20260504080359 59 350 9.0 0.0 0.00 0.00 0.00 51 1016.0
20260504070401 0 0.0 0.0 0.00 0.00 0.00
20260504050409 41 330 14.0 0.0 0.00 0.00 0.00 81 1016.0
20260504044900 37 330 10.0 0.0 0.00 0.00 0.00 87 1016.0
20260504043359 37 330 10.0 0.0 0.00 0.00 0.00 87 1016.0
20260504041900 37 330 10.0 0.0 0.00 0.00 0.00 87 1016.0
20260504040359 37 330 10.0 0.0 0.00 0.00 0.00 87 1016.0
20260504034900 37 330 9.0 0.0 0.00 0.00 0.00 81 1016.0
20260504033359 37 330 9.0 0.0 0.00 0.00 0.00 81 1016.0
20260504031856 37 330 9.0 0.0 0.00 0.00 0.00 81 1016.0
20260504030524 0 0.0 0.0 0.00 0.00 0.00
20260504024857 0 0.0 0.0 0.00 0.00 0.00
20260504023359 0 0.0 0.0 0.00 0.00 0.00
20260504021856 0 0.0 0.0 0.00 0.00 0.00
20260504020400 0 0.0 0.0 0.00 0.00 0.00
20260504014900 0 0.0 0.0 0.00 0.00 0.00
20260504013405 0 0.0 0.0 0.00 0.00 0.00
20260504012023 0 0.0 0.0 0.00 0.00 0.00